CFI025 ZLDH-ZJSY

Flight info

Callsign CFI025
Flight time 3h 26m
Altitude 41100
Route VIKUP W191 DNC V118 VIKOV B330 DAGDI W234 NIXID B330 QNX V86 BSE R339 WUY W169 RUNEG V41 DABUB
Aircraft C750/M-SDE2E3FGHIJ1RWXY/LB1

Departure

Time 2026-05-04 02:23
Airport Dunhuang Mogao International Airport (ZLDH)

Arrival

Time 2026-05-04 05:49
Airport Sanya Phoenix International Airport (ZJSY)
Time Latitude Longitude Altitude Speed Heading
2026-05-04 01:58 40.16469 94.80750 3691 ft 0 kts 354°
2026-05-04 02:11 40.16470 94.80750 3689 ft 1 kts 354°
2026-05-04 02:11 40.16508 94.80759 3688 ft 6 kts 32°
2026-05-04 02:11 40.16516 94.80790 3688 ft 2 kts 94°
2026-05-04 02:11 40.16517 94.80805 3689 ft 2 kts 86°
2026-05-04 02:12 40.16518 94.80820 3687 ft 1 kts 85°
2026-05-04 02:12 40.16519 94.80832 3686 ft 4 kts 83°
2026-05-04 02:12 40.16523 94.80886 3687 ft 8 kts 84°
2026-05-04 02:12 40.16529 94.80974 3688 ft 10 kts 85°
2026-05-04 02:13 40.16536 94.81049 3688 ft 7 kts 86°
2026-05-04 02:13 40.16540 94.81104 3688 ft 6 kts 84°
2026-05-04 02:13 40.16544 94.81149 3688 ft 4 kts 85°
2026-05-04 02:13 40.16546 94.81183 3691 ft 3 kts 85°
2026-05-04 02:14 40.16548 94.81206 3687 ft 2 kts 84°
2026-05-04 02:14 40.16551 94.81241 3687 ft 5 kts 88°
2026-05-04 02:14 40.16552 94.81256 3687 ft 1 kts 86°
2026-05-04 02:14 40.16552 94.81275 3688 ft 1 kts 100°
2026-05-04 02:15 40.16550 94.81280 3687 ft 3 kts 110°
2026-05-04 02:15 40.16521 94.81303 3687 ft 8 kts 171°
2026-05-04 02:15 40.16475 94.81309 3687 ft 5 kts 175°
2026-05-04 02:15 40.16446 94.81312 3687 ft 3 kts 173°
2026-05-04 02:16 40.16402 94.81319 3687 ft 10 kts 178°
2026-05-04 02:16 40.16339 94.81327 3686 ft 8 kts 174°
2026-05-04 02:16 40.16297 94.81333 3685 ft 0 kts 174°
2026-05-04 02:18 40.16263 94.81338 3686 ft 11 kts 173°
2026-05-04 02:18 40.16201 94.81297 3686 ft 8 kts 257°
2026-05-04 02:19 40.16192 94.81197 3686 ft 16 kts 264°
2026-05-04 02:19 40.16178 94.81005 3689 ft 26 kts 265°
2026-05-04 02:19 40.16161 94.80751 3689 ft 27 kts 265°
2026-05-04 02:19 40.16144 94.80514 3689 ft 25 kts 264°
2026-05-04 02:20 40.16131 94.80325 3687 ft 18 kts 261°
2026-05-04 02:20 40.16112 94.80129 3686 ft 30 kts 263°
2026-05-04 02:20 40.16087 94.79856 3685 ft 29 kts 263°
2026-05-04 02:20 40.16065 94.79608 3686 ft 26 kts 262°
2026-05-04 02:21 40.16080 94.79448 3688 ft 13 kts 294°
2026-05-04 02:21 40.16101 94.79354 3687 ft 9 kts 272°
2026-05-04 02:21 40.16088 94.79282 3688 ft 6 kts 215°
2026-05-04 02:21 40.16047 94.79285 3686 ft 8 kts 144°
2026-05-04 02:22 40.16040 94.79348 3687 ft 7 kts 59°
2026-05-04 02:22 40.16048 94.79381 3687 ft 0 kts 84°
2026-05-04 02:23 40.16060 94.79538 3686 ft 52 kts 85°
2026-05-04 02:23 40.16127 94.80418 3689 ft 134 kts 84°
2026-05-04 02:23 40.16238 94.81815 3767 ft 167 kts 83°
2026-05-04 02:24 40.16342 94.83407 3964 ft 191 kts 83°
2026-05-04 02:24 40.16465 94.85001 4253 ft 175 kts 82°
2026-05-04 02:24 40.16622 94.86725 4376 ft 202 kts 82°
2026-05-04 02:24 40.16766 94.88504 5155 ft 186 kts 84°
2026-05-04 02:25 40.16892 94.90165 5785 ft 189 kts 85°
2026-05-04 02:25 40.17036 94.91996 5885 ft 216 kts 84°
2026-05-04 02:25 40.17198 94.94063 6063 ft 236 kts 84°
2026-05-04 02:25 40.17362 94.96197 6631 ft 235 kts 84°
2026-05-04 02:26 40.17528 94.98343 7149 ft 239 kts 84°
2026-05-04 02:26 40.17696 95.00524 7688 ft 243 kts 84°
2026-05-04 02:26 40.17866 95.02732 8279 ft 245 kts 84°
2026-05-04 02:26 40.18037 95.04963 8856 ft 249 kts 84°
2026-05-04 02:27 40.18211 95.07228 9407 ft 252 kts 84°
2026-05-04 02:27 40.18212 95.09523 9828 ft 257 kts 103°
2026-05-04 02:27 40.17340 95.11523 10283 ft 254 kts 135°
2026-05-04 02:27 40.15840 95.12682 10744 ft 253 kts 166°
2026-05-04 02:28 40.14110 95.13001 11238 ft 251 kts 176°
2026-05-04 02:28 40.12361 95.13196 11703 ft 253 kts 177°
2026-05-04 02:28 40.10597 95.13415 12163 ft 256 kts 176°
2026-05-04 02:28 40.08841 95.13654 12619 ft 258 kts 176°
2026-05-04 02:29 40.07021 95.13897 13068 ft 261 kts 176°
2026-05-04 02:29 40.05229 95.14130 13514 ft 263 kts 176°
2026-05-04 02:29 40.03400 95.14369 13934 ft 265 kts 176°
2026-05-04 02:29 40.01556 95.14611 14345 ft 267 kts 176°
2026-05-04 02:30 39.99699 95.14855 14747 ft 269 kts 176°
2026-05-04 02:30 39.97828 95.15100 15156 ft 271 kts 176°
2026-05-04 02:30 39.95945 95.15346 15563 ft 273 kts 176°
2026-05-04 02:30 39.94053 95.15629 15971 ft 276 kts 173°
2026-05-04 02:31 39.92306 95.16700 16255 ft 284 kts 141°
2026-05-04 02:31 39.91095 95.18722 16638 ft 289 kts 120°
2026-05-04 02:31 39.90157 95.21177 16669 ft 316 kts 115°
2026-05-04 02:31 39.89205 95.23881 16744 ft 340 kts 115°
2026-05-04 02:32 39.88140 95.26734 16841 ft 361 kts 116°
2026-05-04 02:32 39.86977 95.29729 16933 ft 380 kts 117°
2026-05-04 02:32 39.85772 95.32886 17024 ft 398 kts 116°
2026-05-04 02:32 39.84555 95.36147 17581 ft 401 kts 116°
2026-05-04 02:33 39.83324 95.39415 18178 ft 404 kts 116°
2026-05-04 02:33 39.82065 95.42710 18669 ft 408 kts 116°
2026-05-04 02:33 39.80800 95.46026 19196 ft 412 kts 116°
2026-05-04 02:33 39.79529 95.49381 19743 ft 415 kts 116°
2026-05-04 02:34 39.78245 95.52764 20286 ft 419 kts 116°
2026-05-04 02:34 39.76944 95.56174 20867 ft 422 kts 116°
2026-05-04 02:34 39.75643 95.59614 21425 ft 426 kts 115°
2026-05-04 02:34 39.74342 95.63091 21977 ft 430 kts 115°
2026-05-04 02:35 39.73022 95.66602 22509 ft 434 kts 115°
2026-05-04 02:35 39.71684 95.70126 23031 ft 438 kts 115°
2026-05-04 02:35 39.70331 95.73690 23565 ft 441 kts 115°
2026-05-04 02:35 39.68971 95.77285 23989 ft 445 kts 115°
2026-05-04 02:36 39.67600 95.80909 24424 ft 449 kts 115°
2026-05-04 02:36 39.66212 95.84559 24851 ft 453 kts 115°
2026-05-04 02:36 39.64811 95.88235 25283 ft 456 kts 115°
2026-05-04 02:36 39.63399 95.91944 25721 ft 460 kts 115°
2026-05-04 02:37 39.62459 95.94415 25996 ft 463 kts 115°
2026-05-04 02:37 39.60540 95.99443 26579 ft 468 kts 115°
2026-05-04 02:37 39.59580 96.01954 26869 ft 470 kts 115°
2026-05-04 02:37 39.57624 96.07064 27431 ft 476 kts 115°
2026-05-04 02:38 39.56650 96.09609 27733 ft 478 kts 115°
2026-05-04 02:38 39.54644 96.14784 28298 ft 483 kts 115°
2026-05-04 02:38 39.53621 96.17350 28558 ft 486 kts 116°
2026-05-04 02:38 39.52062 96.21245 29011 ft 489 kts 115°
2026-05-04 02:39 39.50509 96.25186 29409 ft 493 kts 115°
2026-05-04 02:39 39.48956 96.29159 29832 ft 496 kts 115°
2026-05-04 02:39 39.47378 96.33146 30219 ft 500 kts 115°
2026-05-04 02:39 39.45779 96.37153 30570 ft 503 kts 115°
2026-05-04 02:40 39.44174 96.41188 30924 ft 506 kts 115°
2026-05-04 02:40 39.42572 96.45237 31439 ft 504 kts 115°
2026-05-04 02:40 39.40974 96.49259 31974 ft 503 kts 115°
2026-05-04 02:40 39.39367 96.53283 32453 ft 503 kts 115°
2026-05-04 02:41 39.37763 96.57297 32910 ft 503 kts 115°
2026-05-04 02:41 39.36158 96.61318 33413 ft 503 kts 115°
2026-05-04 02:41 39.34555 96.65332 33906 ft 503 kts 115°
2026-05-04 02:41 39.32949 96.69336 34378 ft 502 kts 115°
2026-05-04 02:42 39.31343 96.73337 34813 ft 502 kts 115°
2026-05-04 02:42 39.29736 96.77341 35193 ft 502 kts 115°
2026-05-04 02:42 39.28126 96.81346 35623 ft 502 kts 115°
2026-05-04 02:42 39.26516 96.85345 36074 ft 502 kts 115°
2026-05-04 02:43 39.24921 96.89351 36575 ft 502 kts 114°
2026-05-04 02:43 39.23373 96.93321 37034 ft 503 kts 114°
2026-05-04 02:43 39.21797 96.97344 37506 ft 503 kts 115°
2026-05-04 02:43 39.20196 97.01353 37918 ft 504 kts 115°
2026-05-04 02:44 39.18587 97.05377 38329 ft 505 kts 115°
2026-05-04 02:44 39.16993 97.09400 38825 ft 504 kts 115°
2026-05-04 02:44 39.15402 97.13425 39189 ft 503 kts 115°
2026-05-04 02:44 39.13803 97.17437 39508 ft 505 kts 115°
2026-05-04 02:45 39.12190 97.21466 39790 ft 506 kts 115°
2026-05-04 02:45 39.10579 97.25496 40146 ft 507 kts 115°
2026-05-04 02:45 39.08968 97.29535 40481 ft 507 kts 116°
2026-05-04 02:45 39.07353 97.33574 40672 ft 510 kts 116°
2026-05-04 02:46 39.05727 97.37624 40955 ft 509 kts 116°
2026-05-04 02:46 39.04099 97.41671 41181 ft 511 kts 116°
2026-05-04 02:46 39.00779 97.49934 41175 ft 528 kts 116°
2026-05-04 02:47 38.97345 97.58441 41183 ft 543 kts 116°
2026-05-04 02:47 38.93827 97.67141 41189 ft 554 kts 116°
2026-05-04 02:48 38.90235 97.75980 41177 ft 559 kts 116°
2026-05-04 02:48 38.86645 97.84786 41181 ft 557 kts 116°
2026-05-04 02:49 38.83048 97.93593 41167 ft 558 kts 117°
2026-05-04 02:49 38.79470 98.02316 41170 ft 556 kts 116°
2026-05-04 02:50 38.75854 98.11120 41178 ft 558 kts 117°
2026-05-04 02:50 38.72230 98.19911 41175 ft 557 kts 117°
2026-05-04 02:51 38.68609 98.28673 41176 ft 557 kts 117°
2026-05-04 02:51 38.64977 98.37438 41177 ft 558 kts 117°
2026-05-04 02:52 38.61331 98.46205 41177 ft 558 kts 117°
2026-05-04 02:52 38.57686 98.54953 41170 ft 558 kts 117°
2026-05-04 02:53 38.54027 98.63705 41175 ft 558 kts 117°
2026-05-04 02:53 38.50370 98.72431 41182 ft 557 kts 117°
2026-05-04 02:54 38.46703 98.81155 41174 ft 558 kts 117°
2026-05-04 02:54 38.43045 98.89836 41182 ft 560 kts 117°
2026-05-04 02:55 38.37510 99.02919 41177 ft 558 kts 117°
2026-05-04 02:56 38.33818 99.11621 41174 ft 559 kts 117°
2026-05-04 02:56 38.30105 99.20343 41161 ft 560 kts 117°
2026-05-04 02:57 38.26392 99.29044 41157 ft 560 kts 117°
2026-05-04 02:57 38.22670 99.37744 41155 ft 559 kts 117°
2026-05-04 02:58 38.18942 99.46428 41151 ft 560 kts 117°
2026-05-04 02:58 38.15210 99.55102 41149 ft 560 kts 117°
2026-05-04 02:59 38.11466 99.63780 41143 ft 560 kts 117°
2026-05-04 02:59 38.07719 99.72440 41148 ft 560 kts 117°
2026-05-04 03:00 38.03968 99.81086 41153 ft 559 kts 117°
2026-05-04 03:00 38.00207 99.89733 41153 ft 560 kts 118°
2026-05-04 03:01 37.96440 99.98370 41146 ft 560 kts 118°
2026-05-04 03:01 37.92689 100.06946 41149 ft 560 kts 118°
2026-05-04 03:02 37.88910 100.15564 41149 ft 560 kts 118°
2026-05-04 03:02 37.85119 100.24184 41151 ft 560 kts 118°
2026-05-04 03:03 37.81328 100.32781 41152 ft 560 kts 118°
2026-05-04 03:03 37.77529 100.41375 41155 ft 560 kts 118°
2026-05-04 03:04 37.73721 100.49967 41159 ft 560 kts 118°
2026-05-04 03:04 37.69908 100.58546 41163 ft 560 kts 118°
2026-05-04 03:05 37.66089 100.67116 41161 ft 560 kts 118°
2026-05-04 03:05 37.62440 100.75782 41152 ft 559 kts 117°
2026-05-04 03:06 37.58774 100.84431 41167 ft 559 kts 117°
2026-05-04 03:06 37.55120 100.93130 41159 ft 563 kts 117°
2026-05-04 03:07 37.51438 101.01795 41161 ft 560 kts 117°
2026-05-04 03:07 37.47771 101.10455 41159 ft 561 kts 117°
2026-05-04 03:08 37.44089 101.19094 41162 ft 560 kts 117°
2026-05-04 03:08 37.40401 101.27739 41167 ft 561 kts 117°
2026-05-04 03:09 37.36710 101.36363 41154 ft 560 kts 117°
2026-05-04 03:09 37.33033 101.44932 41162 ft 560 kts 117°
2026-05-04 03:10 37.29526 101.53649 41146 ft 559 kts 110°
2026-05-04 03:10 37.27360 101.62961 41175 ft 556 kts 101°
2026-05-04 03:11 37.25300 101.72317 41180 ft 556 kts 105°
2026-05-04 03:11 37.23069 101.81624 41184 ft 555 kts 103°
2026-05-04 03:12 37.21001 101.90969 41190 ft 557 kts 104°
2026-05-04 03:12 37.18776 102.00259 41187 ft 555 kts 104°
2026-05-04 03:13 37.16666 102.09582 41189 ft 556 kts 104°
2026-05-04 03:13 37.14459 102.18865 41190 ft 556 kts 104°
2026-05-04 03:14 37.12299 102.28172 41182 ft 556 kts 105°
2026-05-04 03:14 37.09048 102.36957 41180 ft 557 kts 121°
2026-05-04 03:15 37.04720 102.45030 41185 ft 559 kts 124°
2026-05-04 03:15 37.00673 102.53336 41181 ft 559 kts 119°
2026-05-04 03:16 36.96526 102.61569 41172 ft 559 kts 123°
2026-05-04 03:16 36.92388 102.69780 41164 ft 558 kts 120°
2026-05-04 03:17 36.88280 102.78023 41159 ft 559 kts 122°
2026-05-04 03:17 36.84112 102.86201 41159 ft 558 kts 121°
2026-05-04 03:18 36.80244 102.94582 41145 ft 557 kts 115°
2026-05-04 03:18 36.76960 103.03328 41156 ft 557 kts 114°
2026-05-04 03:19 36.73542 103.12009 41161 ft 557 kts 115°
2026-05-04 03:19 36.70185 103.20714 41157 ft 558 kts 114°
2026-05-04 03:20 36.66792 103.29404 41167 ft 558 kts 115°
2026-05-04 03:20 36.63395 103.38090 41176 ft 558 kts 114°
2026-05-04 03:21 36.59999 103.46777 41180 ft 558 kts 115°
2026-05-04 03:21 36.56603 103.55397 41178 ft 558 kts 115°
2026-05-04 03:22 36.52458 103.63540 41161 ft 559 kts 130°
2026-05-04 03:22 36.46788 103.70100 41172 ft 558 kts 143°
2026-05-04 03:23 36.40549 103.75835 41179 ft 559 kts 144°
2026-05-04 03:23 36.34667 103.82149 41167 ft 559 kts 138°
2026-05-04 03:24 36.28723 103.88350 41149 ft 558 kts 143°
2026-05-04 03:24 36.22739 103.94478 41140 ft 559 kts 140°
2026-05-04 03:25 36.16813 104.00709 41142 ft 558 kts 142°
2026-05-04 03:25 36.10818 104.06806 41136 ft 558 kts 141°
2026-05-04 03:26 36.04879 104.13010 41138 ft 558 kts 141°
2026-05-04 03:26 35.98893 104.19103 41133 ft 558 kts 141°
2026-05-04 03:27 35.92940 104.25262 41131 ft 559 kts 141°
2026-05-04 03:27 35.86818 104.31129 41114 ft 556 kts 149°
2026-05-04 03:28 35.81061 104.34543 41120 ft 551 kts 164°
2026-05-04 03:28 35.76159 104.36032 41123 ft 545 kts 175°
2026-05-04 03:28 35.72401 104.36401 41124 ft 540 kts 183°
2026-05-04 03:29 35.64949 104.35852 41144 ft 536 kts 190°
2026-05-04 03:29 35.58673 104.35372 41130 ft 543 kts 184°
2026-05-04 03:30 35.49889 104.35886 41133 ft 543 kts 181°
2026-05-04 03:30 35.43584 104.35885 41134 ft 540 kts 186°
2026-05-04 03:31 35.36036 104.35977 41130 ft 544 kts 182°
2026-05-04 03:31 35.28540 104.36155 41135 ft 542 kts 185°
2026-05-04 03:32 35.20988 104.36210 41132 ft 543 kts 183°
2026-05-04 03:32 35.13430 104.36389 41125 ft 543 kts 184°
2026-05-04 03:33 35.05884 104.36461 41130 ft 543 kts 184°
2026-05-04 03:33 34.98306 104.36616 41121 ft 544 kts 184°
2026-05-04 03:34 34.90731 104.36712 41125 ft 544 kts 184°
2026-05-04 03:34 34.83161 104.36847 41120 ft 544 kts 184°
2026-05-04 03:35 34.75596 104.36958 41123 ft 544 kts 184°
2026-05-04 03:35 34.68023 104.37080 41125 ft 544 kts 184°
2026-05-04 03:36 34.60443 104.37198 41125 ft 545 kts 184°
2026-05-04 03:36 34.52864 104.37317 41134 ft 545 kts 184°
2026-05-04 03:37 34.45284 104.37437 41131 ft 545 kts 184°
2026-05-04 03:37 34.37707 104.37553 41141 ft 545 kts 184°
2026-05-04 03:38 34.30132 104.37673 41140 ft 544 kts 185°
2026-05-04 03:38 34.22546 104.37789 41132 ft 545 kts 185°
2026-05-04 03:39 34.14967 104.37908 41131 ft 545 kts 185°
2026-05-04 03:39 34.07388 104.38025 41126 ft 545 kts 185°
2026-05-04 03:40 33.99803 104.38143 41123 ft 545 kts 185°
2026-05-04 03:40 33.92216 104.38259 41126 ft 545 kts 185°
2026-05-04 03:41 33.84638 104.38377 41130 ft 545 kts 185°
2026-05-04 03:41 33.77066 104.38494 41125 ft 544 kts 185°
2026-05-04 03:42 33.69543 104.38608 41124 ft 544 kts 185°
2026-05-04 03:42 33.61966 104.39335 41129 ft 553 kts 173°
2026-05-04 03:43 33.54648 104.42446 41143 ft 566 kts 156°
2026-05-04 03:43 33.47924 104.47428 41146 ft 569 kts 149°
2026-05-04 03:44 33.41273 104.52544 41127 ft 566 kts 156°
2026-05-04 03:44 33.33953 104.55655 41142 ft 554 kts 173°
2026-05-04 03:45 33.26381 104.56356 41152 ft 542 kts 187°
2026-05-04 03:45 33.18859 104.56003 41167 ft 543 kts 187°
2026-05-04 03:46 33.11273 104.56455 41165 ft 548 kts 180°
2026-05-04 03:46 33.03688 104.57183 41164 ft 544 kts 184°
2026-05-04 03:47 32.96115 104.57457 41169 ft 546 kts 182°
2026-05-04 03:47 32.88542 104.58096 41168 ft 544 kts 183°
2026-05-04 03:48 32.80985 104.58460 41183 ft 545 kts 183°
2026-05-04 03:48 32.73407 104.59003 41182 ft 545 kts 184°
2026-05-04 03:49 32.65837 104.59232 41189 ft 546 kts 185°
2026-05-04 03:49 32.58243 104.59633 41184 ft 545 kts 184°
2026-05-04 03:50 32.50666 104.59948 41196 ft 545 kts 185°
2026-05-04 03:50 32.43093 104.60306 41190 ft 544 kts 184°
2026-05-04 03:51 32.35598 104.60679 41195 ft 545 kts 184°
2026-05-04 03:51 32.28021 104.61118 41195 ft 546 kts 184°
2026-05-04 03:52 32.20450 104.61520 41194 ft 544 kts 184°
2026-05-04 03:52 32.12904 104.61937 41203 ft 543 kts 184°
2026-05-04 03:53 32.05344 104.62348 41201 ft 544 kts 185°
2026-05-04 03:53 31.97783 104.62760 41202 ft 543 kts 184°
2026-05-04 03:54 31.90233 104.63171 41204 ft 543 kts 185°
2026-05-04 03:54 31.82679 104.63579 41204 ft 543 kts 185°
2026-05-04 03:55 31.75134 104.63979 41201 ft 542 kts 185°
2026-05-04 03:55 31.67583 104.64227 41204 ft 544 kts 186°
2026-05-04 03:56 31.60022 104.64559 41198 ft 543 kts 185°
2026-05-04 03:56 31.52528 104.64839 41195 ft 542 kts 186°
2026-05-04 03:57 31.44988 104.65143 41198 ft 542 kts 185°
2026-05-04 03:57 31.37453 104.65440 41195 ft 542 kts 186°
2026-05-04 03:58 31.26152 104.65888 41194 ft 541 kts 185°
2026-05-04 03:58 31.18636 104.66178 41198 ft 540 kts 186°
2026-05-04 03:59 31.11117 104.66476 41186 ft 540 kts 185°
2026-05-04 03:59 31.03599 104.66839 41183 ft 543 kts 182°
2026-05-04 04:00 30.96067 104.67714 41208 ft 545 kts 181°
2026-05-04 04:00 30.88531 104.68548 41205 ft 543 kts 182°
2026-05-04 04:01 30.81008 104.69394 41209 ft 543 kts 181°
2026-05-04 04:01 30.73482 104.70251 41209 ft 543 kts 182°
2026-05-04 04:02 30.65957 104.71089 41215 ft 543 kts 182°
2026-05-04 04:02 30.58500 104.71936 41213 ft 542 kts 182°
2026-05-04 04:03 30.50994 104.72769 41218 ft 542 kts 182°
2026-05-04 04:03 30.43484 104.73611 41224 ft 542 kts 182°
2026-05-04 04:04 30.35986 104.74443 41233 ft 541 kts 182°
2026-05-04 04:04 30.28529 104.75278 41385 ft 529 kts 182°
2026-05-04 04:05 30.24901 104.75688 41258 ft 519 kts 183°
2026-05-04 04:05 30.21323 104.76078 41227 ft 512 kts 183°
2026-05-04 04:05 30.17781 104.76460 41048 ft 514 kts 183°
2026-05-04 04:05 30.14195 104.76853 41146 ft 520 kts 182°
2026-05-04 04:06 30.06919 104.77667 41232 ft 531 kts 182°
2026-05-04 04:06 29.99500 104.78929 41218 ft 552 kts 172°
2026-05-04 04:07 29.92246 104.82176 41244 ft 563 kts 162°
2026-05-04 04:07 29.85075 104.85741 41230 ft 559 kts 165°
2026-05-04 04:08 29.77862 104.89107 41230 ft 561 kts 163°
2026-05-04 04:08 29.70691 104.92647 41224 ft 558 kts 164°
2026-05-04 04:09 29.63516 104.96017 41218 ft 558 kts 164°
2026-05-04 04:09 29.56363 104.99497 41214 ft 558 kts 164°
2026-05-04 04:10 29.49174 105.02826 41201 ft 554 kts 168°
2026-05-04 04:10 29.41882 105.05608 41223 ft 552 kts 169°
2026-05-04 04:11 29.34601 105.08418 41219 ft 552 kts 168°
2026-05-04 04:11 29.27325 105.11215 41212 ft 551 kts 169°
2026-05-04 04:12 29.20060 105.13991 41212 ft 552 kts 168°
2026-05-04 04:12 29.12766 105.16789 41212 ft 552 kts 169°
2026-05-04 04:13 29.05540 105.19540 41205 ft 550 kts 169°
2026-05-04 04:13 28.98283 105.22313 41205 ft 550 kts 169°
2026-05-04 04:14 28.91030 105.25068 41203 ft 550 kts 169°
2026-05-04 04:14 28.83773 105.27830 41202 ft 549 kts 169°
2026-05-04 04:15 28.76527 105.30577 41195 ft 549 kts 169°
2026-05-04 04:15 28.69279 105.33325 41200 ft 549 kts 169°
2026-05-04 04:16 28.62031 105.36068 41196 ft 548 kts 169°
2026-05-04 04:16 28.54794 105.38802 41197 ft 548 kts 169°
2026-05-04 04:17 28.47564 105.41530 41196 ft 548 kts 169°
2026-05-04 04:17 28.41546 105.43797 41201 ft 548 kts 169°
2026-05-04 04:18 28.33088 105.46980 41196 ft 548 kts 169°
2026-05-04 04:18 28.25847 105.49699 41211 ft 548 kts 169°
2026-05-04 04:19 28.19826 105.51959 41206 ft 548 kts 169°
2026-05-04 04:19 28.12594 105.54668 41219 ft 548 kts 169°
2026-05-04 04:20 28.05346 105.57280 41205 ft 542 kts 174°
2026-05-04 04:20 27.97986 105.58559 41248 ft 534 kts 181°
2026-05-04 04:21 27.90618 105.59712 41257 ft 536 kts 180°
2026-05-04 04:21 27.83249 105.60943 41241 ft 538 kts 178°
2026-05-04 04:22 27.76040 105.63680 41246 ft 558 kts 160°
2026-05-04 04:22 27.69219 105.67945 41264 ft 561 kts 157°
2026-05-04 04:23 27.62243 105.71756 41270 ft 554 kts 162°
2026-05-04 04:23 27.55277 105.75510 41275 ft 556 kts 160°
2026-05-04 04:24 27.48321 105.79299 41276 ft 555 kts 162°
2026-05-04 04:24 27.41340 105.83025 41278 ft 555 kts 161°
2026-05-04 04:25 27.34413 105.86795 41265 ft 543 kts 161°
2026-05-04 04:25 27.31052 105.88590 41267 ft 528 kts 162°
2026-05-04 04:25 27.27760 105.90348 41266 ft 519 kts 162°
2026-05-04 04:26 27.21298 105.93825 41273 ft 514 kts 162°
2026-05-04 04:26 27.14787 105.97306 41290 ft 522 kts 162°
2026-05-04 04:27 27.08197 106.00844 41298 ft 528 kts 161°
2026-05-04 04:27 27.01407 106.03535 41276 ft 506 kts 178°
2026-05-04 04:28 26.94479 106.04814 41299 ft 504 kts 179°
2026-05-04 04:28 26.87554 106.06122 41299 ft 505 kts 178°
2026-05-04 04:29 26.80626 106.07420 41291 ft 504 kts 179°
2026-05-04 04:29 26.73762 106.08701 41287 ft 504 kts 178°
2026-05-04 04:30 26.66857 106.09997 41285 ft 503 kts 178°
2026-05-04 04:30 26.59956 106.11281 41288 ft 503 kts 178°
2026-05-04 04:31 26.53051 106.12573 41295 ft 503 kts 178°
2026-05-04 04:31 26.46143 106.13857 41294 ft 504 kts 178°
2026-05-04 04:32 26.39235 106.15145 41292 ft 503 kts 178°
2026-05-04 04:32 26.32343 106.16425 41291 ft 502 kts 178°
2026-05-04 04:33 26.25458 106.17710 41292 ft 501 kts 178°
2026-05-04 04:33 26.18577 106.18990 41295 ft 501 kts 178°
2026-05-04 04:34 26.11706 106.20268 41292 ft 501 kts 178°
2026-05-04 04:34 26.04835 106.21544 41294 ft 501 kts 178°
2026-05-04 04:35 25.97974 106.22816 41290 ft 498 kts 178°
2026-05-04 04:35 25.91135 106.24084 41306 ft 498 kts 178°
2026-05-04 04:36 25.84293 106.25349 41285 ft 498 kts 178°
2026-05-04 04:36 25.77475 106.26610 41302 ft 497 kts 178°
2026-05-04 04:37 25.63828 106.29128 41285 ft 497 kts 178°
2026-05-04 04:38 25.56990 106.30386 41276 ft 498 kts 178°
2026-05-04 04:38 25.50151 106.31646 41280 ft 498 kts 178°
2026-05-04 04:39 25.43318 106.32901 41270 ft 498 kts 178°
2026-05-04 04:39 25.36518 106.34150 41274 ft 498 kts 178°
2026-05-04 04:40 25.29669 106.35404 41267 ft 499 kts 178°
2026-05-04 04:40 25.22810 106.36661 41263 ft 500 kts 178°
2026-05-04 04:41 25.15935 106.37918 41260 ft 501 kts 178°
2026-05-04 04:41 25.09046 106.39177 41258 ft 502 kts 178°
2026-05-04 04:42 25.02151 106.40436 41261 ft 502 kts 178°
2026-05-04 04:42 24.95265 106.41687 41253 ft 502 kts 177°
2026-05-04 04:43 24.88373 106.42931 41253 ft 502 kts 177°
2026-05-04 04:43 24.81473 106.44181 41251 ft 502 kts 177°
2026-05-04 04:44 24.74579 106.45423 41249 ft 502 kts 177°
2026-05-04 04:44 24.67686 106.46668 41245 ft 502 kts 177°
2026-05-04 04:45 24.60798 106.47908 41253 ft 502 kts 177°
2026-05-04 04:47 24.36659 106.52246 41234 ft 501 kts 176°
2026-05-04 04:47 24.29826 106.53470 41232 ft 500 kts 176°
2026-05-04 04:48 24.22957 106.54700 41228 ft 500 kts 176°
2026-05-04 04:49 24.05768 106.57773 41217 ft 500 kts 176°
2026-05-04 04:49 23.98914 106.58994 41214 ft 498 kts 176°
2026-05-04 04:50 23.92268 106.61259 41186 ft 514 kts 154°
2026-05-04 04:50 23.89401 106.63634 41200 ft 522 kts 139°
2026-05-04 04:50 23.86884 106.66499 41251 ft 524 kts 136°
2026-05-04 04:51 23.81955 106.72398 41235 ft 526 kts 136°
2026-05-04 04:51 23.76942 106.78204 41229 ft 525 kts 136°
2026-05-04 04:52 23.71986 106.84048 41224 ft 524 kts 136°
2026-05-04 04:52 23.67007 106.89850 41208 ft 524 kts 136°
2026-05-04 04:53 23.62069 106.95626 41210 ft 524 kts 136°
2026-05-04 04:53 23.57098 107.01424 41216 ft 523 kts 136°
2026-05-04 04:54 23.52124 107.07218 41213 ft 523 kts 136°
2026-05-04 04:54 23.47153 107.13008 41208 ft 523 kts 136°
2026-05-04 04:55 23.42185 107.18779 41210 ft 522 kts 136°
2026-05-04 04:55 23.37224 107.24543 41206 ft 521 kts 136°
2026-05-04 04:56 23.32267 107.30289 41212 ft 521 kts 136°
2026-05-04 04:56 23.27303 107.36041 41209 ft 521 kts 136°
2026-05-04 04:57 23.22336 107.41787 41207 ft 521 kts 136°
2026-05-04 04:57 23.17373 107.47523 41200 ft 521 kts 136°
2026-05-04 04:58 23.12410 107.53253 41202 ft 520 kts 136°
2026-05-04 04:58 23.07446 107.58977 41200 ft 521 kts 136°
2026-05-04 04:59 23.02479 107.64698 41198 ft 520 kts 136°
2026-05-04 04:59 22.97511 107.70418 41198 ft 521 kts 136°
2026-05-04 05:00 22.92533 107.76146 41195 ft 521 kts 136°
2026-05-04 05:01 22.85077 107.84710 41194 ft 520 kts 136°
2026-05-04 05:01 22.80108 107.90410 41196 ft 520 kts 137°
2026-05-04 05:02 22.75140 107.96101 41204 ft 520 kts 137°
2026-05-04 05:02 22.70169 108.01790 41211 ft 520 kts 137°
2026-05-04 05:03 22.65196 108.07474 41220 ft 520 kts 137°
2026-05-04 05:04 22.53650 108.15569 41214 ft 489 kts 178°
2026-05-04 05:04 22.46896 108.16344 41237 ft 489 kts 180°
2026-05-04 05:06 22.19901 108.19419 41191 ft 486 kts 180°
2026-05-04 05:07 22.14268 108.20053 41189 ft 486 kts 180°
2026-05-04 05:07 22.06449 108.20944 41195 ft 486 kts 180°
2026-05-04 05:09 21.77276 108.24244 41176 ft 485 kts 180°
2026-05-04 05:10 21.70610 108.24996 41172 ft 485 kts 180°
2026-05-04 05:10 21.63903 108.25753 41167 ft 485 kts 180°
2026-05-04 05:11 21.57195 108.26509 41176 ft 484 kts 180°
2026-05-04 05:11 21.50490 108.27263 41169 ft 484 kts 179°
2026-05-04 05:12 21.43788 108.28017 41163 ft 484 kts 179°
2026-05-04 05:12 21.37099 108.28769 41158 ft 484 kts 179°
2026-05-04 05:13 21.30402 108.29520 41158 ft 483 kts 179°
2026-05-04 05:13 21.23711 108.30269 41156 ft 483 kts 180°
2026-05-04 05:14 21.20388 108.30281 41106 ft 474 kts 192°
2026-05-04 05:14 21.17148 108.29751 41176 ft 472 kts 194°
2026-05-04 05:14 21.10670 108.28641 41169 ft 471 kts 194°
2026-05-04 05:15 21.04200 108.27565 41162 ft 471 kts 194°
2026-05-04 05:15 20.97729 108.26470 41157 ft 471 kts 194°
2026-05-04 05:16 20.91244 108.25388 41161 ft 471 kts 194°
2026-05-04 05:16 20.84765 108.24301 41148 ft 472 kts 194°
2026-05-04 05:17 20.78275 108.23218 41148 ft 472 kts 194°
2026-05-04 05:17 20.71793 108.22134 41138 ft 471 kts 194°
2026-05-04 05:18 20.65309 108.21052 41146 ft 472 kts 194°
2026-05-04 05:18 20.58820 108.19969 41147 ft 472 kts 194°
2026-05-04 05:19 20.52228 108.19730 41128 ft 485 kts 174°
2026-05-04 05:19 20.48982 108.20812 41125 ft 495 kts 160°
2026-05-04 05:19 20.46021 108.22729 41127 ft 504 kts 145°
2026-05-04 05:20 20.40916 108.27896 41169 ft 508 kts 138°
2026-05-04 05:20 20.35876 108.33163 41158 ft 507 kts 139°
2026-05-04 05:21 20.30806 108.38371 41149 ft 506 kts 139°
2026-05-04 05:21 20.25778 108.43599 41145 ft 505 kts 139°
2026-05-04 05:22 20.20733 108.48789 41139 ft 505 kts 139°
2026-05-04 05:22 20.15735 108.53960 41129 ft 504 kts 139°
2026-05-04 05:23 20.10698 108.59144 41122 ft 504 kts 139°
2026-05-04 05:23 20.05669 108.64329 41123 ft 503 kts 139°
2026-05-04 05:24 20.00641 108.69497 41122 ft 502 kts 139°
2026-05-04 05:24 19.98122 108.72083 40859 ft 508 kts 139°
2026-05-04 05:24 19.95605 108.74680 40167 ft 495 kts 140°
2026-05-04 05:25 19.93166 108.77197 39533 ft 483 kts 140°
2026-05-04 05:25 19.90768 108.79654 38911 ft 476 kts 141°
2026-05-04 05:25 19.88385 108.82088 38240 ft 474 kts 141°
2026-05-04 05:25 19.86017 108.84517 37632 ft 475 kts 141°
2026-05-04 05:26 19.83632 108.86966 37005 ft 479 kts 141°
2026-05-04 05:26 19.81224 108.89435 36364 ft 483 kts 141°
2026-05-04 05:26 19.78795 108.91920 35721 ft 487 kts 140°
2026-05-04 05:26 19.76352 108.94423 35073 ft 489 kts 140°
2026-05-04 05:27 19.73904 108.96932 34424 ft 490 kts 140°
2026-05-04 05:28 19.56621 109.14591 29787 ft 493 kts 139°
2026-05-04 05:29 19.54178 109.17087 29156 ft 485 kts 139°
2026-05-04 05:29 19.51753 109.19558 28521 ft 481 kts 139°
2026-05-04 05:29 19.49133 109.21683 27881 ft 471 kts 154°
2026-05-04 05:29 19.46083 109.22756 27322 ft 458 kts 173°
2026-05-04 05:31 19.24739 109.24970 23313 ft 432 kts 169°
2026-05-04 05:31 19.21827 109.25596 22745 ft 424 kts 174°
2026-05-04 05:32 19.18922 109.26072 22181 ft 421 kts 175°
2026-05-04 05:32 19.16039 109.26619 21641 ft 419 kts 172°
2026-05-04 05:32 19.13201 109.27260 21096 ft 415 kts 172°
2026-05-04 05:33 19.07589 109.28410 20008 ft 407 kts 174°
2026-05-04 05:33 19.04814 109.28949 19497 ft 404 kts 173°
2026-05-04 05:33 19.02103 109.29513 18947 ft 401 kts 173°
2026-05-04 05:33 18.99381 109.30086 18448 ft 397 kts 173°
2026-05-04 05:34 18.96678 109.30632 17879 ft 394 kts 173°
2026-05-04 05:34 18.94001 109.31166 17368 ft 390 kts 173°
2026-05-04 05:34 18.91338 109.31706 16854 ft 388 kts 173°
2026-05-04 05:34 18.88695 109.32250 16360 ft 386 kts 172°
2026-05-04 05:35 18.86063 109.32786 15851 ft 384 kts 172°
2026-05-04 05:35 18.83450 109.33314 15345 ft 381 kts 172°
2026-05-04 05:35 18.80854 109.33840 14845 ft 379 kts 172°
2026-05-04 05:35 18.78271 109.34366 14350 ft 377 kts 172°
2026-05-04 05:36 18.75706 109.34888 13861 ft 373 kts 172°
2026-05-04 05:36 18.73166 109.35403 13342 ft 371 kts 171°
2026-05-04 05:36 18.70637 109.35915 12846 ft 369 kts 171°
2026-05-04 05:36 18.68123 109.36427 12379 ft 366 kts 171°
2026-05-04 05:37 18.65637 109.36931 11889 ft 363 kts 171°
2026-05-04 05:37 18.63164 109.37430 11410 ft 360 kts 171°
2026-05-04 05:37 18.60794 109.37912 10962 ft 333 kts 171°
2026-05-04 05:38 18.56580 109.38768 10170 ft 290 kts 171°
2026-05-04 05:38 18.54630 109.39160 9814 ft 283 kts 171°
2026-05-04 05:38 18.52699 109.39550 9449 ft 284 kts 171°
2026-05-04 05:38 18.50728 109.39888 9037 ft 287 kts 177°
2026-05-04 05:39 18.48798 109.39479 8615 ft 284 kts 204°
2026-05-04 05:39 18.45981 109.36665 7970 ft 282 kts 232°
2026-05-04 05:39 18.44760 109.35042 7603 ft 283 kts 231°
2026-05-04 05:40 18.42285 109.31850 6848 ft 280 kts 230°
2026-05-04 05:40 18.41057 109.30261 6477 ft 280 kts 230°
2026-05-04 05:40 18.39834 109.28674 6093 ft 279 kts 230°
2026-05-04 05:41 18.38719 109.27024 5666 ft 273 kts 243°
2026-05-04 05:41 18.38309 109.25144 5349 ft 253 kts 262°
2026-05-04 05:41 18.38102 109.23375 5079 ft 238 kts 262°
2026-05-04 05:41 18.37874 109.21632 4786 ft 242 kts 262°
2026-05-04 05:42 18.37639 109.19885 4455 ft 245 kts 262°
2026-05-04 05:42 18.37138 109.18192 4044 ft 245 kts 237°
2026-05-04 05:42 18.35896 109.17057 3858 ft 223 kts 206°
2026-05-04 05:42 18.34500 109.16705 3903 ft 202 kts 179°
2026-05-04 05:43 18.33115 109.16871 3946 ft 203 kts 171°
2026-05-04 05:43 18.31679 109.17080 3901 ft 213 kts 171°
2026-05-04 05:43 18.30196 109.17287 3758 ft 217 kts 171°
2026-05-04 05:45 18.28340 109.26211 2464 ft 176 kts 82°
2026-05-04 05:45 18.28493 109.27386 2294 ft 153 kts 82°
2026-05-04 05:47 18.29378 109.34136 1054 ft 129 kts 82°
2026-05-04 05:47 18.29503 109.35064 898 ft 128 kts 83°
2026-05-04 05:47 18.29622 109.35983 805 ft 126 kts 83°
2026-05-04 05:48 18.29733 109.36904 656 ft 128 kts 84°
2026-05-04 05:48 18.29855 109.37843 469 ft 131 kts 84°
2026-05-04 05:48 18.29974 109.38792 307 ft 129 kts 84°
2026-05-04 05:48 18.30094 109.39710 105 ft 123 kts 84°
2026-05-04 05:49 18.30195 109.40483 80 ft 79 kts 83°
2026-05-04 05:49 18.30243 109.40857 78 ft 29 kts 82°
2026-05-04 05:49 18.30273 109.41091 83 ft 38 kts 83°
2026-05-04 05:49 18.30315 109.41304 82 ft 16 kts 45°
2026-05-04 05:51 18.30414 109.40842 83 ft 19 kts 262°
2026-05-04 05:51 18.30398 109.40706 82 ft 18 kts 262°
2026-05-04 05:52 18.30382 109.40576 80 ft 18 kts 263°
2026-05-04 05:52 18.30364 109.40452 80 ft 17 kts 263°
2026-05-04 05:52 18.30350 109.40335 80 ft 16 kts 262°
2026-05-04 05:52 18.30332 109.40210 81 ft 18 kts 261°
2026-05-04 05:53 18.30322 109.40124 82 ft 17 kts 264°
2026-05-04 05:54 18.30422 109.39731 80 ft 5 kts 265°
2026-05-04 05:55 18.30420 109.39717 80 ft 0 kts 261°